Weather History for Dunkirk, NY

Change the Weather History Date:

Saturday, March 30, 2013

  Actual Average Record
Temperature  
Mean Temperature 38 °F -  
Max Temperature 48 °F 51 °F 80 °F (1977)
Min Temperature 28 °F 35 °F 13 °F (1941)
Degree Days  
Heating Degree Days 27    
Moisture  
Dew Point 23 °F    
Average Humidity 57    
Maximum Humidity 76    
Minimum Humidity 32    
Precipitation  
Precipitation 0.00 in - - ()
Sea Level Pressure  
Sea Level Pressure 30.17 in    
Wind  
Wind Speed 4 mph (WSW)    
Max Wind Speed 8 mph    
Max Gust Speed -    
Visibility 10 miles    
Events      
Averages and records for this station are not official NWS values.
T = Trace of Precipitation, MM = Missing Value Source: NWS Daily Summary

Daily Weather History Graph

Daily Weather History Graph

Search for Another Location

Airport:

Trip Planner

Search our weather history database for the weather conditions in past years. The results will help you decide how hot, cold, wet, or windy it might be!

Date:

Astronomy

Mar. 30, 2013 Rise Set
Actual Time 7:02 AM EDT 7:41 PM EDT
Civil Twilight 6:34 AM EDT 8:09 PM EDT
Nautical Twilight 6:00 AM EDT 8:43 PM EDT
Astronomical Twilight 5:26 AM EDT 9:17 PM EDT
Moon 11:51 PM EDT 8:51 AM EDT
Length of Visible Light 13h 35m
Length of Day
12h 38m
Waning Gibbous, 86% of the Moon is Illuminated
Mar 30
Waning Gibbous
Apr 3
Last Quarter
Apr 10
New
Apr 18
First Quarter
Apr 25
Full

Hourly Weather History & Observations

Time (EDT) Temp. Windchill Dew Point Humidity Pressure Visibility Wind Dir Wind Speed Gust Speed Precip Events Conditions
12:53 AM 33.1 °F - 21.9 °F 64% 30.22 in 10.0 mi Calm Calm - N/A   Clear
1:53 AM 28.9 °F 23.9 °F 21.9 °F 75% 30.22 in 10.0 mi SW 4.6 mph - N/A   Clear
2:53 AM 32.0 °F 28.7 °F 21.0 °F 64% 30.22 in 10.0 mi SSW 3.5 mph - N/A   Clear
3:53 AM 28.9 °F 23.9 °F 21.0 °F 72% 30.22 in 10.0 mi SW 4.6 mph - N/A   Clear
4:53 AM 28.0 °F - 21.0 °F 75% 30.21 in 10.0 mi Calm Calm - N/A   Clear
5:53 AM 28.9 °F 22.8 °F 21.9 °F 75% 30.22 in 10.0 mi SW 5.8 mph - N/A   Clear
6:53 AM 28.9 °F 25.2 °F 21.9 °F 75% 30.23 in 10.0 mi SSW 3.5 mph - N/A   Clear
7:53 AM 30.9 °F 25.2 °F 24.1 °F 76% 30.24 in 10.0 mi SSW 5.8 mph - N/A   Clear
8:53 AM 37.0 °F 32.4 °F 27.0 °F 67% 30.25 in 10.0 mi SW 5.8 mph - N/A   Clear
9:53 AM 39.9 °F 35.8 °F 28.0 °F 63% 30.25 in 10.0 mi WSW 5.8 mph - N/A   Clear
10:53 AM 44.1 °F 40.8 °F 26.1 °F 49% 30.24 in 10.0 mi West 5.8 mph - N/A   Clear
11:53 AM 45.0 °F 41.2 °F 25.0 °F 46% 30.22 in 10.0 mi NNW 6.9 mph - N/A   Clear
12:53 PM 46.0 °F 42.5 °F 25.0 °F 44% 30.21 in 10.0 mi NW 6.9 mph - N/A   Clear
1:53 PM 46.9 °F - 25.0 °F 42% 30.19 in 10.0 mi NW 8.1 mph - N/A   Clear
2:53 PM 48.0 °F - 19.9 °F 33% 30.17 in 10.0 mi West 5.8 mph - N/A   Clear
3:53 PM 48.0 °F - 19.0 °F 32% 30.14 in 10.0 mi WNW 5.8 mph - N/A   Clear
4:53 PM 48.0 °F - 19.9 °F 33% 30.13 in 10.0 mi NW 5.8 mph - N/A   Clear
5:53 PM 46.9 °F - 19.0 °F 33% 30.13 in 10.0 mi Calm Calm - N/A   Clear
6:53 PM 46.0 °F - 18.0 °F 33% 30.10 in 10.0 mi Calm Calm - N/A   Clear
7:53 PM 39.9 °F - 24.1 °F 53% 30.09 in 10.0 mi Calm Calm - N/A   Clear
8:53 PM 36.0 °F 32.1 °F 24.1 °F 62% 30.08 in 10.0 mi ESE 4.6 mph - N/A   Clear
9:53 PM 36.0 °F 32.1 °F 24.1 °F 62% 30.07 in 10.0 mi East 4.6 mph - N/A   Clear
10:53 PM 32.0 °F 27.5 °F 25.0 °F 75% 30.05 in 10.0 mi SSE 4.6 mph - N/A   Clear
11:53 PM 32.0 °F 26.4 °F 25.0 °F 75% 30.03 in 10.0 mi SSW 5.8 mph - N/A   Clear